Torna al catalogo

EXACTVIEW 9

LostScienzaLEO
NORAD 40936·PAYLOAD·🇨🇦 Canada

Lanciato Sep 28, 2015 da Satish Dhawan Space Centre

Loading…

Prossimi Passaggi (prossime 24 ore)

TLE

ObsoletoSource: Space-Track

Epoca: Jan 6, 2024, 01:52 UTC

1 40936U 15052G   24006.07845669  .00002815  00000-0  28083-3 0  9992
2 40936   6.0026  75.6655 0010627 288.6842  71.2132 14.79620840447389

Traccia EXACTVIEW 9 in tempo reale con AllMySat

Download on the App Store